Regional Weather Roundup
Issued by NWS Nashville, TN

Home | Current Version | Previous Version | Text Only | Print | Product List | Glossary On
Versions: 1 2 3 4 5 6 7 8 9 10 11 12 13 14 15 16 17 18 19 20 21 22 23 24 25 26 27 28 29 30 31 32 33 34 35 36 37 38 39 40 41 42 43 44 45 46 47 48 49 50
000
ASUS44 KOHX 051715
RWROHX
MIDDLE TENNESSEE HOURLY WEATHER ROUNDUP
NATIONAL WEATHER SERVICE NASHVILLE TN
1200 PM CDT TUE MAY 05 2015

NOTE: "FAIR" INDICATES FEW OR NO CLOUDS BELOW 12,000 FEET WITH
NO SIGNIFICANT WEATHER AND/OR OBSTRUCTIONS TO VISIBILITY.

* THESE REPORTS ARE NOT UNDER NWS QUALITY CONTROL AND MAY NOT
  REPORT WEATHER SUCH AS PRECIPITATION AND FOG.


TNZ005>011-023>034-057-059-062>066-078-080-051800
...NORTHERN MIDDLE TENNESSEE...

CITY           SKY/WX    TMP DP  RH WIND       PRES   REMARKS
CLARKSVILLE    SUNNY     80  55  42 SW8       30.27F
CROSSVILLE     PTSUNNY   76  49  38 CALM      30.34F
NASHVILLE      MOSUNNY   83  53  35 S9        30.29F
PORTLAND       SUNNY     79  55  44 SW6       30.28F
ROCKWOOD       SUNNY     75  56  51 SE8       30.33F
SMYRNA         MOSUNNY   82  55  39 SW6       30.29F
SPARTA         SUNNY     81  55  41 CALM      30.30F
$$
TNZ056-058-060-061-075>077-079-093>097-051800
...SOUTHERN MIDDLE TENNESSEE...

CITY           SKY/WX    TMP DP  RH WIND       PRES   REMARKS
COLUMBIA       SUNNY     81  57  44 CALM      30.27F
LEWISBURG      SUNNY     83  55  37 VRB6      30.29F
MCMINNVILLE    SUNNY     81  55  41 VRB3      30.31F
SHELBYVILLE    MOSUNNY   81  57  44 VRB3      30.31F
TULLAHOMA      SUNNY     79  52  38 VRB5      30.32F
WINCHESTER     SUNNY     79  54  41 CALM      30.30F
$$


...KEY TO REMARKS...
VSB - VISIBILITY IN MILES
WCI - WIND CHILL INDEX
HX  - HEAT INDEX



USA.gov is the U.S. government's official web portal to all federal, state and local government web resources and services.